Meteo Giornale » Osservazioni meteo Repubblica Ceca » Praha-Ruzyne

ore: 17:30 - Osservazioni Meteo Praha-Ruzyne
Lat. 50° 6' N Lon. 14° 15' E Alt. 365 metri s.l.m.

sereno Europe/Prague

27 °C

Sereno

Temp. 24 Ore

16 °C

28 °C

Nord/NOvest

27.8 Km/h

Dew point 10 °C

Umidità 34 %

Visibilità  10 Km

Il sole sorge alle ore 05:12

Il sole tramonta alle ore 21:06

Data e Ora Cielo e Fenomeni T °C DP °C Um. % Pres. hPa Vis. km Vento km/h
Oggi h: 17:30 sereno Sereno 27 10 34 1014 10 N/NO 27.8
Oggi h: 17:00 sereno Sereno 27 10 34 1015 10 NO 29.6
Oggi h: 16:30 sereno Sereno 26 10 36 1015 10 N/NO 27.8
Oggi h: 16:00 sereno Sereno 27 10 34 1015 10 NO 24
Oggi h: 15:30 sereno Sereno 26 11 39 1015 10 N/NO 29.6
Oggi h: 15:00 sereno Sereno 26 11 39 1015 10 NO 31.5
Oggi h: 14:30 sereno Sereno 26 11 39 1015 10 NO 35.2
Oggi h: 14:00 nuvoloso Nuvoloso 25 12 44 1015 10 NO 31.5
Oggi h: 13:30 poco_nuvoloso Poco Nuvoloso 24 12 47 1015 10 NO 33.3
Oggi h: 13:00 poco_nuvoloso Poco Nuvoloso 24 12 47 1015 10 NO 33.3
Oggi h: 12:30 poco_nuvoloso Poco Nuvoloso 25 13 47 1015 10 NO 29.6
Oggi h: 12:00 poco_nuvoloso Poco Nuvoloso 24 13 50 1015 10 NO 33.3
Oggi h: 11:30 poco_nuvoloso Poco Nuvoloso 23 12 49 1015 10 N/NO 31.5
Oggi h: 11:00 poco_nuvoloso Poco Nuvoloso 23 12 49 1015 10 N/NO 29.6
Oggi h: 10:30 sereno Sereno 23 12 49 1015 10 NO 35.2
Oggi h: 10:00 sereno Sereno 23 12 49 1015 10 NO 31.5
Oggi h: 09:30 sereno Sereno 22 12 53 1014 10 O/NO 29.6
Oggi h: 09:00 sereno Sereno 21 11 52 1014 10 O/NO 31.5
Oggi h: 08:30 sereno Sereno 21 11 52 1014 10 O/NO 33.3
Oggi h: 08:00 sereno Sereno 21 10 49 1014 10 O/NO 31.5
Oggi h: 07:30 sereno Sereno 21 10 49 1014 10 O/NO 18.5
Oggi h: 07:00 sereno Sereno 21 10 49 1013 10 NO 14.8
Oggi h: 06:30 sereno Sereno 19 9 52 1013 10 O/NO 13
Oggi h: 06:00 sereno Sereno 18 10 59 1013 10 O 13
Oggi h: 05:30 sereno Sereno 17 11 67 1013 10 O 11.1
Oggi h: 05:00 sereno Sereno 16 11 72 1012 10 O/SO 11.1
Oggi h: 04:30 sereno Sereno 16 11 72 1012 10 O/SO 13
Oggi h: 04:00 sereno Sereno 16 11 72 1012 10 O/SO 11.1
Oggi h: 03:30 sereno Sereno 16 11 72 1012 10 O/SO 13
Oggi h: 02:30 sereno Sereno 18 12 67 1013 10 O 11.1
Oggi h: 02:00 sereno Sereno 18 12 67 1013 10 O 9.3
Oggi h: 01:30 sereno Sereno 17 12 72 1013 10 O 9.3
Oggi h: 01:00 sereno Sereno 17 11 67 1013 10 N 5.5
Oggi h: 00:30 sereno Sereno 19 12 63 1013 10 N 1.8
Oggi h: 00:00 sereno Sereno 19 12 63 1012 10 NE 9.3
Ieri h: 23:30 sereno Sereno 19 12 63 1012 10 E/NE 9.3
Ieri h: 23:00 sereno Sereno 21 11 52 1012 10 NE 11.1
Ieri h: 22:30 sereno Sereno 22 10 46 1012 10 NO 9.3
Ieri h: 22:00 sereno Sereno 22 10 46 1012 10 NO 7.4
Ieri h: 21:30 sereno Sereno 23 10 43 1011 10 NO 7.4
Ieri h: 21:00 sereno Sereno 24 10 41 1011 10 N/NO 11.1
Ieri h: 20:30 sereno Sereno 25 10 38 1011 10 N 14.8
Ieri h: 20:00 sereno Sereno 26 9 34 1011 10 N/NO 18.5
Ieri h: 19:30 sereno Sereno 27 6 26 1011 10 NO 29.6
Ieri h: 19:00 sereno Sereno 28 10 32 1011 10 N 20.3